Change the Weather History Date:

Monday, December 10, 2012

  Actual Average Record
Temperature  
Mean Temperature 11 °F 21 °F  
Max Temperature 20 °F 29 °F 54 °F (1979)
Min Temperature 2 °F 14 °F -18 °F (1977)
Degree Days  
Heating Degree Days 54 44  
Month to date heating degree days 334 419  
Since 1 July heating degree days 1822 2038  
Cooling Degree Days 0 0  
Month to date cooling degree days 0 0  
Year to date cooling degree days 1131 753  
Moisture  
Dew Point 7 °F    
Average Humidity 84    
Maximum Humidity 95    
Minimum Humidity 73    
Precipitation  
Precipitation T in 0.04 in 0.61 in (1911)
Month to date precipitation 1.02 0.42  
Year to date precipitation 28.97 29.87  
Snow  
Snow 0.10 in 0.40 in 1.80 in (2013)
Month to date snowfall 11.4 4.1  
Since 1 July snowfall 12.2 14.0  
Snow Depth 9.00 in    
Sea Level Pressure  
Sea Level Pressure 29.96 in    
Wind  
Wind Speed 8 mph (WNW)    
Max Wind Speed 22 mph    
Max Gust Speed 28 mph    
Visibility 9 miles    
Events Snow    
T = Trace of Precipitation, MM = Missing Value Source: NWS Daily Summary

Daily Weather History Graph

Daily Weather History Graph

Search for Another Location

Airport or City:

Trip Planner

Search our weather history database for the weather conditions in past years. The results will help you decide how hot, cold, wet, or windy it might be!

Date:

Astronomy

Dec. 10, 2012 Rise Set
Actual Time 7:40 AM CST 4:31 PM CST
Civil Twilight 7:06 AM CST 5:05 PM CST
Nautical Twilight 6:29 AM CST 5:42 PM CST
Astronomical Twilight 5:54 AM CST 6:17 PM CST
Moon 4:19 AM CST (12/10) 2:25 PM CST (12/10)
Length of Visible Light 9h 58m
Length of Day
8h 51m
Waning Crescent, 10% of the Moon is Illuminated
Dec 10
Waning Crescent
Dec 13
New
Dec 19
First Quarter
Dec 28
Full
Jan 4
Last Quarter

Hourly Weather History & Observations

Time (CST) Temp. Windchill Dew Point Humidity Pressure Visibility Wind Dir Wind Speed Gust Speed Precip Events Conditions
12:13 AM 19.4 °F 3.6 °F 15.8 °F 86% 29.91 in 6.0 mi NNW 19.6 mph 25.3 mph 0.00 in Snow Light Snow
12:53 AM 18.0 °F 3.6 °F 15.1 °F 88% 29.96 in 5.0 mi NNW 15.0 mph 20.7 mph 0.00 in Snow Light Snow
1:06 AM 17.6 °F 1.7 °F 14.0 °F 86% 29.92 in 9.0 mi NW 18.4 mph - 0.00 in Snow Light Snow
1:53 AM 16.0 °F 0.6 °F 12.9 °F 88% 29.96 in 9.0 mi NNW 16.1 mph - 0.00 in Snow Light Snow
2:49 AM 15.8 °F -0.2 °F 12.2 °F 86% 29.93 in 9.0 mi NW 17.3 mph 24.2 mph 0.00 in Snow Light Snow
2:53 AM 16.0 °F 1.1 °F 12.0 °F 84% 29.97 in 9.0 mi NW 15.0 mph 24.2 mph 0.00 in Snow Light Snow
3:53 AM 14.0 °F 2.9 °F 10.9 °F 88% 29.97 in 5.0 mi NW 8.1 mph - 0.00 in Snow Light Snow
4:11 AM 12.2 °F -0.2 °F 10.4 °F 92% 29.92 in 2.5 mi NW 9.2 mph - 0.00 in Snow Light Snow
4:19 AM 12.2 °F -1.0 °F 10.4 °F 92% 29.92 in 6.0 mi NW 10.4 mph - 0.00 in Snow Light Snow
4:53 AM 12.0 °F -0.4 °F 9.0 °F 88% 29.97 in 6.0 mi WNW 9.2 mph - 0.00 in   Mostly Cloudy
5:00 AM 12.2 °F -0.2 °F 8.6 °F 85% 29.93 in 10.0 mi WNW 9.2 mph - N/A   Mostly Cloudy
5:21 AM 10.4 °F -1.5 °F 8.6 °F 92% 29.93 in 10.0 mi WNW 8.1 mph - N/A   Mostly Cloudy
5:53 AM 10.0 °F -1.9 °F 7.0 °F 87% 29.98 in 10.0 mi NW 8.1 mph - 0.00 in   Mostly Cloudy
6:05 AM 10.4 °F -1.5 °F 6.8 °F 85% 29.93 in 9.0 mi NW 8.1 mph - N/A   Mostly Cloudy
6:46 AM 10.4 °F -4.8 °F 6.8 °F 85% 29.94 in 10.0 mi NNW 12.7 mph - 0.01 in   Overcast
6:53 AM 10.9 °F -1.8 °F 8.1 °F 88% 29.99 in 10.0 mi NW 9.2 mph - 0.01 in   Overcast
7:53 AM 10.9 °F -1.8 °F 8.1 °F 88% 29.98 in 8.0 mi NW 9.2 mph - 0.00 in Snow Light Snow
8:53 AM 12.0 °F 0.5 °F 8.1 °F 84% 29.99 in 10.0 mi NW 8.1 mph - 0.00 in   Overcast
9:53 AM 12.0 °F 0.5 °F 8.1 °F 84% 29.99 in 10.0 mi WNW 8.1 mph - N/A   Mostly Cloudy
10:53 AM 10.9 °F 1.4 °F 6.1 °F 81% 30.00 in 10.0 mi NW 5.8 mph - N/A   Scattered Clouds
11:53 AM 14.0 °F 3.9 °F 8.1 °F 77% 29.98 in 10.0 mi NW 6.9 mph - N/A   Partly Cloudy
12:53 PM 17.1 °F 10.0 °F 10.0 °F 74% 29.96 in 10.0 mi Variable 4.6 mph - N/A   Partly Cloudy
1:53 PM 17.1 °F 10.0 °F 10.9 °F 77% 29.95 in 10.0 mi Variable 4.6 mph - N/A   Scattered Clouds
2:53 PM 15.1 °F 5.2 °F 9.0 °F 77% 29.94 in 10.0 mi SW 6.9 mph - N/A   Scattered Clouds
3:53 PM 10.9 °F -1.8 °F 5.0 °F 77% 29.95 in 10.0 mi SW 9.2 mph - N/A   Mostly Cloudy
4:53 PM 7.0 °F -6.6 °F 1.9 °F 80% 29.97 in 10.0 mi SW 9.2 mph - N/A   Scattered Clouds
5:53 PM 5.0 °F -5.6 °F -0.0 °F 80% 29.98 in 10.0 mi SW 5.8 mph - N/A   Scattered Clouds
6:53 PM 3.9 °F -5.3 °F -0.0 °F 84% 29.97 in 10.0 mi SSW 4.6 mph - N/A   Mostly Cloudy
7:53 PM 1.9 °F -5.6 °F -0.9 °F 88% 29.96 in 10.0 mi SSW 3.5 mph - N/A   Mostly Cloudy
8:53 PM 3.0 °F -4.4 °F -0.0 °F 87% 29.96 in 10.0 mi SE 3.5 mph - N/A   Overcast
9:53 PM 3.0 °F -4.4 °F -0.0 °F 87% 29.95 in 10.0 mi South 3.5 mph - N/A   Scattered Clouds
10:53 PM 3.0 °F -8.0 °F -0.0 °F 87% 29.93 in 10.0 mi ESE 5.8 mph - N/A   Overcast
11:53 PM 5.0 °F -6.9 °F 1.0 °F 84% 29.91 in 10.0 mi ESE 6.9 mph - N/A   Overcast